Airfield :
LOGIN :

Register | Disclaimer

   EN    FR    IT 

 










Legend :    VFR   Marginal VFR   IFR   Intensive IFR   Very Intensive IFR
Visi :
Ceiling :
>= 8 km
>= 3000ft
5 to 8 km
1000 to 3000 ft
1500m to 5 km
500 to 1000 ft
800 to 1500m
200 to 500 ft
< 800m
< 200 ft
Symbols :   Thunderstorms  Fog  Heavy snow  Heavy precipitations  Wind > 20 kt
SIGMETs :     Misc.  Thunderstorms  Icing  Turbulence  Mountain Waves  Volcanic Ashes







- Airport Elevation : 290 ft
- IATA code : OSI


LDOS - Osijek

CURRENT METAR :
  • 180730Z 04004KT 350V100 CAVOK 27/18 Q1017

EXPIRED METARs :
  • 180700Z 04004KT 360V090 CAVOK 25/17 Q1017
  • 180630Z VRB02KT CAVOK 23/19 Q1017
  • 180600Z 09002KT CAVOK 22/18 Q1016
  • 180530Z 06003KT 030V100 CAVOK 21/18 Q1016
  • 180500Z 06004KT CAVOK 19/17 Q1016

TAF TAF LDOS
Valid from the 18 at 06:00 until the 19 at 06:00 UTC


180525Z 1806/1906 06005KT CAVOK TX32/1813Z TN18/1903Z
PROB30
TEMPO 1812/1819 TS FEW050CB
No reported NOTAMs for that airfield.



MET'MAP, your aeronautical weather chart ! - Copyright ORBIFLY December 2007 - Disclaimer

ORBIFLY MET'MAP TEAM :

Programming & Development : Alexandra Zaïnal
Concept & Development : Baudouin d'Aumeries
Co-Development & Prog : Marc-Olivier Méhu
Technical & hardware support : Manuel Goepfert

Contact : metmap@orbifly.com




SOURCES & CREDITS :

   NOAA